Weather Service Report


754 
ASUS42 KFFC 231810
RWRGA 
WEATHER ROUNDUP FOR GEORGIA
NATIONAL WEATHER SERVICE PEACHTREE CITY GA
100 PM EST THU NOV 23 2017

NOTE: "FAIR" INDICATES FEW OR NO CLOUDS BELOW 12,000 FEET WITH NO
SIGNIFICANT WEATHER AND/OR OBSTRUCTIONS TO VISIBILITY. 

* = USE WITH CAUTION. THE STATIONS MARKED WITH AN ASTERISK MAY NOT
REPORT WEATHER SUCH AS PRECIPITATION, FOG, OR THUNDER AND ARE NOT 
QUALITY CONTROLLED BY NWS.

THE REMARK "TC" DENOTES TEMPERATURE READING IN DEGREES CELSIUS.

GAZ001>058-231900-
NORTH GEORGIA
  
CITY           SKY/WX    TMP DP  RH WIND       PRES   REMARKS
ATLANTA        MOSUNNY   57  36  45 E6        30.02F                  
6HR MIN TEMP:  42; 6HR MAX TEMP:  58;                                

ATHENS         SUNNY     54  34  46 E7        30.05F                  
6HR MIN TEMP:  41; 6HR MAX TEMP:  55;                                

CHAMBLEE       MOSUNNY   57  32  38 NE6       30.02F                  
6HR MIN TEMP:  42; 6HR MAX TEMP:  57;                                

PEACHTREE CITY SUNNY     60  38  43 SE8       30.02F                  
6HR MIN TEMP:  35; 6HR MAX TEMP:  60;                                

ROME           PTSUNNY   56  34  43 NE5       30.04F                  
6HR MIN TEMP:  30; 6HR MAX TEMP:  56;                                

WEST ATLANTA   PTSUNNY   57  34  41 E6        30.02F                  
6HR MIN TEMP:  34; 6HR MAX TEMP:  58;                                

GAINESVILLE    SUNNY     56  28  34 E10       30.05F                  
6HR MIN TEMP:  41; 6HR MAX TEMP:  56;                                

CARTERSVILLE   MOSUNNY   59  32  36 VRB5      30.04F                  
6HR MIN TEMP:  29; 6HR MAX TEMP:  60;                                


  
CITY           SKY/WX    TMP DP  RH WIND       PRES   REMARKS
DALTON*        CLOUDY    54  36  50 N3        30.08F                  
LAWRENCEVILLE* SUNNY     58  32  37 E9        30.04F                  
MARIETTA       PTSUNNY   57  31  37 E8        30.01F                  
KENNESAW*      PTSUNNY   58  30  34 E6        30.03F                  
CANTON*        SUNNY     59  32  36 NE6       30.04F                  
$$

GAZ059>098-102>109-231900-
CENTRAL GEORGIA
  
CITY           SKY/WX    TMP DP  RH WIND       PRES   REMARKS
AUGUSTA-BUSH   CLOUDY    55  38  52 E8        30.04F                  
6HR MIN TEMP:  47; 6HR MAX TEMP:  55;                                

AUGUSTA-DANIEL CLOUDY    57  36  45 N7        30.05F                  
6HR MIN TEMP:  48; 6HR MAX TEMP:  57;                                

COLUMBUS       CLOUDY    65  48  54 SE6       29.98F                  
6HR MIN TEMP:  44; 6HR MAX TEMP:  65;                                

MACON          CLOUDY    60  40  47 VRB7      30.02F                  
6HR MIN TEMP:  50; 6HR MAX TEMP:  61;                                

ROBINS AFB     PTSUNNY   61  41  48 N6        30.01S                  

  
CITY           SKY/WX    TMP DP  RH WIND       PRES   REMARKS
LAGRANGE*      CLOUDY    62  45  53 NE5       30.00F                  
SYLVANIA*      CLOUDY    52  47  84 NE6       30.03F                  
MILLEDGEVILLE* CLOUDY    59  41  51 E3        30.03F                  
$$

GAZ099>101-110>166-231900-
SOUTH GEORGIA
  
CITY           SKY/WX    TMP DP  RH WIND       PRES   REMARKS
SAVANNAH       RAIN      50  50 100 NE8       30.00F FOG              
6HR MIN TEMP:  48; 6HR MAX TEMP:  50; 6HR PCP:  0.38;                

VALDOSTA       CLOUDY    60  57  89 NE7       29.95F                  
6HR MIN TEMP:  59; 6HR MAX TEMP:  61; 6HR PCP:  0.03;                

ALMA           CLOUDY    55  52  89 VRB3      29.97F                  
6HR MIN TEMP:  53; 6HR MAX TEMP:  56; 6HR PCP: TRACE;                

ST SIMONS      LGT RAIN  60  60 100 NE10      29.95F                  
6HR MIN TEMP:  59; 6HR MAX TEMP:  62; 6HR PCP:  0.41;                

FT STEWART     LGT RAIN  50  48  93 N7        29.97F                  
ALBANY         CLOUDY    66  54  65 NE7       29.95F                  
HUNTER AFB     LGT RAIN  51  49  92 NE5       29.97F                  
MOODY AFB      LGT RAIN  58  57  97 NE8       29.94F                  
BRUNSWICK      LGT RAIN  55  54  94 NE9       29.97F                  

  
CITY           SKY/WX    TMP DP  RH WIND       PRES   REMARKS
BAINBRIDGE*    MOSUNNY   68  61  77 E6        29.95F                  
MOULTRIE*      DRIZZLE   59  55  88 NE6       29.96F                  
VIDALIA*       CLOUDY    55  48  76 NE7       29.99F                  
WAYCROSS*      DRIZZLE   55  52  90 NE7       29.96F                  
DOUGLAS*       CLOUDY    54  52  94 NE8       29.99F                  
$$
  

Return to Home page


Western Regional Climate Center, wrcc@dri.edu